Paducah, KY

12:20 PM CDT on June 25, 2017 (GMT -0500)
Barkley Regional

Weather History for KPAH - April, 2012

Change the Weather History Date:

Thursday, April 26, 2012

  Actual Average Record
Temperature  
Mean Temperature 73 °F 61 °F  
Max Temperature 86 °F 73 °F 88 °F (1989)
Min Temperature 59 °F 50 °F 35 °F (1988)
Degree Days  
Heating Degree Days 0 5  
Month to date heating degree days 204 225  
Since 1 July heating degree days 3195 4044  
Cooling Degree Days 8 2  
Month to date cooling degree days 53 30  
Year to date cooling degree days 113 37  
Growing Degree Days 25 (Base 50)    
Moisture  
Dew Point 58 °F    
Average Humidity 55    
Maximum Humidity 73    
Minimum Humidity 36    
Precipitation  
Precipitation 0.00 in 0.18 in 1.53 in (2017)
Month to date precipitation 0.44 4.08  
Year to date precipitation 10.18 15.60  
Snow  
Snow 0.00 in 0.00 in 0.00 in (2002)
Month to date snowfall 0.0 0.0  
Since 1 July snowfall 0.7 9.1  
Snow Depth 0.00 in    
Sea Level Pressure  
Sea Level Pressure 29.80 in    
Wind  
Wind Speed 9 mph (WNW)    
Max Wind Speed 17 mph    
Max Gust Speed 23 mph    
Visibility 10 miles    
Events      
T = Trace of Precipitation, MM = Missing Value Source: NWS Daily Summary

Daily Weather History Graph

Daily Weather History Graph

Search for Another Location

Airport or City:

Trip Planner

Search our weather history database for the weather conditions in past years. The results will help you decide how hot, cold, wet, or windy it might be!

Date:

Astronomy

Apr. 26, 2012 Rise Set
Actual Time 6:05 AM CDT 7:40 PM CDT
Civil Twilight 5:38 AM CDT 8:07 PM CDT
Nautical Twilight 5:05 AM CDT 8:41 PM CDT
Astronomical Twilight 4:30 AM CDT 9:16 PM CDT
Moon 9:48 AM CDT (4/26) No Moon Set
Length of Visible Light 14h 29m
Length of Day
13h 34m
Waxing Crescent, 24% of the Moon is Illuminated
Apr 26
Waxing Crescent
Apr 29
First Quarter
May 5
Full
May 12
Last Quarter
May 20
New

Hourly Weather History & Observations

Time (CDT) Temp. Heat Index Dew Point Humidity Pressure Visibility Wind Dir Wind Speed Gust Speed Precip Events Conditions
12:53 AM 73.0 °F - 57.9 °F 59% 29.68 in 10.0 mi SW 13.8 mph 19.6 mph N/A   Partly Cloudy
1:53 AM 73.0 °F - 59.0 °F 61% 29.69 in 10.0 mi SW 10.4 mph 19.6 mph N/A   Partly Cloudy
2:53 AM 72.0 °F - 59.0 °F 64% 29.67 in 10.0 mi SW 11.5 mph - N/A   Clear
3:53 AM 71.1 °F - 59.0 °F 66% 29.69 in 10.0 mi SW 10.4 mph - N/A   Clear
4:53 AM 69.1 °F - 59.0 °F 70% 29.70 in 10.0 mi WSW 9.2 mph - N/A   Clear
5:53 AM 70.0 °F - 60.1 °F 71% 29.70 in 10.0 mi SW 11.5 mph 20.7 mph N/A   Clear
6:53 AM 69.8 °F - 60.8 °F 73% 29.74 in 10.0 mi WSW 9.2 mph - N/A   Clear
7:53 AM 71.1 °F - 62.1 °F 73% 29.76 in 10.0 mi WSW 10.4 mph - N/A   Clear
8:53 AM 73.9 °F - 63.0 °F 68% 29.77 in 10.0 mi West 9.2 mph - N/A   Clear
9:53 AM 75.9 °F - 64.0 °F 67% 29.79 in 10.0 mi WNW 10.4 mph - N/A   Clear
10:53 AM 79.0 °F - 64.9 °F 62% 29.81 in 10.0 mi WNW 3.5 mph - N/A   Clear
11:53 AM 81.0 °F 82.5 °F 64.0 °F 56% 29.81 in 10.0 mi Calm Calm - N/A   Clear
12:53 PM 82.0 °F 83.1 °F 63.0 °F 52% 29.81 in 10.0 mi Variable 6.9 mph - N/A   Scattered Clouds
1:53 PM 84.9 °F 85.0 °F 61.0 °F 44% 29.82 in 10.0 mi NW 10.4 mph - N/A   Partly Cloudy
2:53 PM 84.0 °F 84.0 °F 60.1 °F 44% 29.83 in 10.0 mi NW 12.7 mph - N/A   Clear
3:53 PM 84.9 °F 83.6 °F 55.0 °F 36% 29.83 in 10.0 mi North 12.7 mph - N/A   Partly Cloudy
4:53 PM 82.0 °F 81.2 °F 53.1 °F 37% 29.84 in 10.0 mi NW 12.7 mph - N/A   Clear
5:53 PM 80.1 °F - 51.1 °F 36% 29.86 in 10.0 mi North 15.0 mph 21.9 mph N/A   Clear
6:53 PM 75.0 °F - 51.1 °F 43% 29.86 in 10.0 mi NNE 10.4 mph - N/A   Clear
7:53 PM 72.0 °F - 53.1 °F 51% 29.88 in 10.0 mi North 8.1 mph - N/A   Clear
8:53 PM 66.9 °F - 54.0 °F 63% 29.92 in 10.0 mi Calm Calm - N/A   Clear
9:53 PM 68.0 °F - 53.1 °F 59% 29.94 in 10.0 mi Calm Calm - N/A   Clear
10:53 PM 64.4 °F - 53.6 °F 68% 29.96 in 10.0 mi NNE 4.6 mph - N/A   Clear
11:53 PM 63.0 °F - 50.0 °F 63% 29.98 in 10.0 mi ENE 10.4 mph - N/A   Clear